Date,TemperatureHighF,TemperatureAvgF,TemperatureLowF,DewpointHighF,DewpointAvgF,DewpointLowF,HumidityHigh,HumidityAvg,HumidityLow,PressureMaxIn,PressureMinIn,WindSpeedMaxMPH,WindSpeedAvgMPH,GustSpeedMaxMPH,PrecipitationSumIn
2013-10-1,86.5,83.2,79.3,80.0,77.9,76.0,90,84,74,29.90,29.82,17,5,18,0.00
2013-10-2,87.1,83.7,80.1,80.0,78.3,77.0,91,84,73,29.88,29.76,15,5,18,0.00
2013-10-3,87.6,84.5,80.9,81.0,78.2,76.0,91,81,70,29.84,29.73,16,7,18,0.00
2013-10-4,87.4,84.4,81.2,80.0,77.2,74.0,84,79,69,29.90,29.80,11,4,16,0.00
2013-10-5,86.0,83.5,79.5,79.0,76.9,75.0,88,80,74,29.92,29.82,13,6,17,0.00
2013-10-6,86.9,83.8,80.2,80.0,77.6,74.0,87,81,73,29.88,29.79,14,6,18,0.00
2013-10-7,87.0,84.2,81.5,81.0,78.6,76.0,88,83,77,29.90,29.80,12,5,15,0.00
2013-10-8,87.5,84.1,80.2,82.0,79.3,75.0,90,85,80,29.90,29.81,10,3,12,0.00
2013-10-9,87.5,84.2,81.1,81.0,79.4,77.0,93,85,76,29.90,29.80,10,3,11,0.00
2013-10-10,85.9,83.2,79.9,80.0,77.6,76.0,91,83,76,29.91,29.81,12,3,15,0.00
2013-10-11,85.7,82.6,78.9,80.0,77.6,75.0,90,84,80,29.90,29.76,12,4,14,0.00
2013-10-12,85.7,83.6,81.1,79.0,77.5,75.0,90,82,71,29.89,29.80,9,3,12,0.00
2013-10-13,89.5,84.6,80.7,80.0,77.8,75.0,89,80,67,29.94,29.84,12,3,13,0.00
2013-10-14,86.8,84.0,80.5,81.0,79.0,76.0,88,84,79,29.93,29.83,11,3,14,0.00
2013-10-15,86.8,84.0,80.7,81.0,79.4,78.0,92,86,79,29.91,29.80,20,6,25,0.00
2013-10-16,85.6,83.4,81.4,80.0,78.4,77.0,90,85,79,29.94,29.83,20,9,26,0.00
2013-10-17,85.0,82.2,78.4,80.0,77.0,74.0,89,84,79,29.91,29.78,17,8,22,0.00
2013-10-18,85.5,82.6,79.1,80.0,76.5,74.0,87,82,73,29.88,29.79,15,5,19,0.00
2013-10-19,86.3,83.1,78.2,80.0,77.1,74.0,91,82,74,29.90,29.81,9,3,11,0.00
2013-10-20,86.3,82.9,78.6,79.0,76.3,68.0,89,81,59,29.86,29.75,14,4,17,0.00
2013-10-21,84.1,81.3,77.2,76.0,73.5,68.0,89,77,60,29.87,29.76,22,7,25,0.00
2013-10-22,85.6,81.0,75.2,77.0,73.6,68.0,87,78,69,29.85,29.74,20,6,20,0.00
2013-10-23,86.9,81.3,76.1,79.0,74.9,70.0,87,81,65,29.85,29.77,17,6,20,0.00
2013-10-24,86.2,82.3,77.7,81.0,77.9,74.0,94,86,75,29.90,29.80,20,7,23,0.00
2013-10-25,85.7,82.1,78.5,80.0,76.5,74.0,88,83,76,29.96,29.86,11,4,14,0.00
2013-10-26,84.9,81.7,77.9,78.0,75.3,71.0,86,81,72,29.93,29.82,16,6,20,0.00
2013-10-27,84.9,81.4,76.4,79.0,76.3,72.0,89,84,78,29.87,29.76,13,4,16,0.00
2013-10-28,86.5,81.9,77.7,81.0,78.2,74.0,94,88,81,29.91,29.81,9,3,12,0.00
2013-10-29,86.6,82.4,77.9,81.0,79.0,76.0,95,89,82,29.94,29.82,10,3,15,0.00
2013-10-30,86.9,83.2,79.4,81.0,78.6,77.0,93,86,79,29.91,29.82,9,2,13,0.00
2013-10-31,86.8,82.5,78.2,81.0,78.0,73.0,91,86,82,29.92,29.83,12,4,13,0.00